�������l�o���
Date,Time,MP-1(��Sv/h),MP-2(��Sv/h),MP-3(��Sv/h),MP-4(��Sv/h),MP-5(��Sv/h),MP-6(��Sv/h),MP-7(��Sv/h),MP-8(��Sv/h),����,����(m/s),���J
2017/01/17,00:00,1.081,1.802,1.177,2.045,1.415,0.558,1.028,0.954,�k��,8.6,��
2017/01/17,00:10,1.080,1.802,1.177,2.043,1.417,0.561,1.028,0.955,�k��,8.2,��
2017/01/17,00:20,1.080,1.803,1.176,2.045,1.415,0.560,1.027,0.952,�k��,7.5,��
2017/01/17,00:30,1.082,1.803,1.175,2.045,1.414,0.560,1.028,0.955,���k��,7.1,��
2017/01/17,00:40,1.081,1.802,1.176,2.045,1.418,0.559,1.030,0.954,���k��,7.2,��
2017/01/17,00:50,1.081,1.800,1.177,2.045,1.416,0.560,1.029,0.955,���k��,7.6,��
2017/01/17,01:00,1.081,1.801,1.175,2.045,1.415,0.559,1.029,0.954,���k��,6.4,��
2017/01/17,01:10,1.080,1.800,1.175,2.044,1.414,0.560,1.029,0.952,���k��,7.2,��
2017/01/17,01:20,1.082,1.801,1.173,2.045,1.416,0.561,1.028,0.954,�k��,6.4,��
2017/01/17,01:30,1.082,1.802,1.174,2.042,1.415,0.560,1.028,0.955,���k��,6.3,��
2017/01/17,01:40,1.081,1.797,1.174,2.045,1.415,0.559,1.028,0.953,���k��,6.1,��
2017/01/17,01:50,1.079,1.800,1.174,2.041,1.411,0.559,1.027,0.954,���k��,6.9,��
2017/01/17,02:00,1.080,1.799,1.176,2.046,1.412,0.558,1.028,0.954,���k��,6.5,��
2017/01/17,02:10,1.078,1.799,1.175,2.043,1.413,0.558,1.026,0.952,�k��,7.0,��
2017/01/17,02:20,1.079,1.796,1.175,2.044,1.411,0.558,1.027,0.953,�k��,7.6,��
2017/01/17,02:30,1.081,1.800,1.173,2.044,1.413,0.560,1.028,0.953,�k��,6.6,��
2017/01/17,02:40,1.077,1.801,1.176,2.042,1.411,0.560,1.027,0.953,�k��,6.6,��
2017/01/17,02:50,1.080,1.797,1.174,2.042,1.412,0.560,1.027,0.952,�k��,7.3,��
2017/01/17,03:00,1.080,1.797,1.176,2.044,1.414,0.559,1.028,0.955,�k��,8.1,��
2017/01/17,03:10,1.080,1.798,1.176,2.042,1.410,0.559,1.028,0.954,�k��,7.8,��
2017/01/17,03:20,1.077,1.799,1.175,2.046,1.412,0.560,1.028,0.953,�k��,7.7,��
2017/01/17,03:30,1.079,1.800,1.174,2.043,1.414,0.560,1.027,0.954,�k��,8.0,��
2017/01/17,03:40,1.078,1.799,1.176,2.040,1.415,0.559,1.025,0.951,�k��,8.0,��
2017/01/17,03:50,1.079,1.800,1.173,2.044,1.413,0.558,1.026,0.953,�k��,8.5,��
2017/01/17,04:00,1.078,1.800,1.172,2.045,1.412,0.560,1.027,0.954,�k��,9.1,��
2017/01/17,04:10,1.079,1.798,1.174,2.043,1.413,0.559,1.027,0.954,���k��,7.8,��
2017/01/17,04:20,1.077,1.801,1.176,2.042,1.414,0.560,1.028,0.953,���k��,6.3,��
2017/01/17,04:30,1.078,1.796,1.176,2.043,1.412,0.559,1.028,0.951,���k��,8.3,��
2017/01/17,04:40,1.077,1.795,1.172,2.041,1.411,0.558,1.028,0.954,�k��,7.3,��
2017/01/17,04:50,1.077,1.795,1.173,2.040,1.413,0.558,1.028,0.954,���k��,6.7,��
2017/01/17,05:00,1.077,1.798,1.173,2.043,1.410,0.559,1.026,0.953,���k��,6.6,��
2017/01/17,05:10,1.077,1.799,1.173,2.039,1.410,0.558,1.027,0.953,�k��,8.0,��
2017/01/17,05:20,1.077,1.795,1.173,2.042,1.413,0.559,1.027,0.953,���k��,7.9,��
2017/01/17,05:30,1.077,1.800,1.172,2.042,1.409,0.559,1.028,0.954,�k��,8.0,��
2017/01/17,05:40,1.077,1.801,1.174,2.043,1.412,0.559,1.026,0.953,���k��,8.1,��
2017/01/17,05:50,1.078,1.799,1.173,2.040,1.410,0.559,1.024,0.952,���k��,8.1,��
2017/01/17,06:00,1.078,1.798,1.174,2.044,1.412,0.559,1.027,0.953,���k��,7.8,��
2017/01/17,06:10,1.077,1.798,1.173,2.045,1.411,0.558,1.027,0.952,���k��,6.9,��
2017/01/17,06:20,1.078,1.798,1.172,2.043,1.410,0.558,1.027,0.953,���k��,7.7,��
2017/01/17,06:30,1.074,1.798,1.174,2.042,1.411,0.556,1.025,0.954,���k��,6.9,��
2017/01/17,06:40,1.077,1.800,1.172,2.041,1.411,0.558,1.028,0.952,���k��,7.0,��
2017/01/17,06:50,1.077,1.798,1.172,2.045,1.411,0.558,1.026,0.954,���k��,7.1,��
2017/01/17,07:00,1.075,1.797,1.172,2.043,1.410,0.559,1.027,0.950,���k��,6.8,��
2017/01/17,07:10,1.076,1.794,1.174,2.042,1.408,0.558,1.025,0.954,�k��,7.2,��
2017/01/17,07:20,1.076,1.796,1.174,2.042,1.411,0.557,1.025,0.954,�k��,6.4,��
2017/01/17,07:30,1.077,1.799,1.173,2.042,1.410,0.558,1.027,0.952,�k��,7.0,��
2017/01/17,07:40,1.078,1.798,1.173,2.044,1.410,0.557,1.026,0.953,�k��,7.5,��
2017/01/17,07:50,1.078,1.797,1.173,2.043,1.412,0.557,1.026,0.953,�k��,7.4,��
2017/01/17,08:00,1.077,1.797,1.175,2.043,1.409,0.557,1.025,0.951,�k��,6.6,��
2017/01/17,08:10,1.076,1.797,1.177,2.045,1.410,0.558,1.027,0.952,�k��,6.7,��
2017/01/17,08:20,1.074,1.798,1.172,2.041,1.412,0.557,1.025,0.952,�k��,7.3,��
2017/01/17,08:30,1.078,1.797,1.174,2.044,1.411,0.558,1.026,0.952,�k��,7.2,��
2017/01/17,08:40,1.078,1.797,1.174,2.043,1.412,0.558,1.027,0.953,�k��,7.6,��
2017/01/17,08:50,1.079,1.803,1.176,2.046,1.413,0.559,1.026,0.953,�k��,6.8,��
2017/01/17,09:00,1.079,1.800,1.174,2.043,1.408,0.557,1.026,0.953,�k��,5.8,��
2017/01/17,09:10,1.079,1.796,1.174,2.045,1.410,0.559,1.027,0.954,�k��,7.1,��
2017/01/17,09:20,1.078,1.800,1.176,2.044,1.410,0.560,1.027,0.953,�k��,5.2,��
2017/01/17,09:30,1.081,1.799,1.177,2.046,1.412,0.560,1.028,0.954,�k�k��,6.0,��
2017/01/17,09:40,1.079,1.798,1.172,2.044,1.416,0.560,1.028,0.953,�k�k��,5.3,��
2017/01/17,09:50,1.078,1.798,1.174,2.046,1.415,0.559,1.028,0.955,�k�k��,5.8,��
2017/01/17,10:00,1.078,1.805,1.169,2.045,1.417,0.559,1.025,0.954,�k,5.7,��
2017/01/17,10:10,1.079,1.804,1.172,2.046,1.414,0.560,1.028,0.955,�k,4.2,��
2017/01/17,10:20,1.079,1.799,1.172,2.044,1.416,0.560,1.026,0.954,�k�k��,6.2,��
2017/01/17,10:30,1.081,1.798,1.174,2.049,1.416,0.560,1.026,0.954,�k,5.5,��
2017/01/17,10:40,1.081,1.795,1.174,2.048,1.417,0.560,1.026,0.955,�k,5.6,��
2017/01/17,10:50,1.079,1.795,1.174,2.046,1.417,0.560,1.025,0.954,�k�k��,6.0,��
2017/01/17,11:00,1.080,1.796,1.172,2.049,1.417,0.559,1.026,0.954,�k�k��,5.7,��
2017/01/17,11:10,1.081,1.795,1.173,2.048,1.419,0.558,1.027,0.954,�k�k��,5.2,��
2017/01/17,11:20,1.080,1.797,1.176,2.047,1.420,0.560,1.025,0.955,�k�k��,6.1,��
2017/01/17,11:30,1.083,1.796,1.177,2.050,1.419,0.559,1.026,0.954,�k,6.8,��
2017/01/17,11:40,1.083,1.792,1.179,2.050,1.421,0.560,1.025,0.953,�k,6.9,��
2017/01/17,11:50,1.082,1.795,1.179,2.048,1.420,0.561,1.027,0.956,�k�k��,5.3,��
2017/01/17,12:00,1.083,1.795,1.178,2.049,1.422,0.559,1.029,0.955,�k��,6.8,��
2017/01/17,12:10,1.082,1.796,1.179,2.046,1.421,0.562,1.027,0.955,�k��,7.0,��
2017/01/17,12:20,1.085,1.801,1.180,2.048,1.422,0.560,1.026,0.954,�k��,7.3,��
2017/01/17,12:30,1.083,1.806,1.180,2.049,1.422,0.559,1.026,0.954,�k�k��,5.4,��
2017/01/17,12:40,1.086,1.803,1.179,2.049,1.419,0.561,1.029,0.955,�k�k��,7.0,��
2017/01/17,12:50,1.082,1.797,1.177,2.051,1.423,0.562,1.026,0.953,�k,6.3,��
2017/01/17,13:00,1.083,1.802,1.178,2.049,1.425,0.562,1.028,0.955,�k�k��,6.2,��
2017/01/17,13:10,1.081,1.806,1.178,2.049,1.420,0.561,1.028,0.957,�k,5.6,��
2017/01/17,13:20,1.083,1.809,1.181,2.048,1.422,0.559,1.027,0.955,�k�k��,4.6,��
2017/01/17,13:30,1.084,1.810,1.177,2.051,1.421,0.560,1.029,0.956,�k�k��,4.1,��
2017/01/17,13:40,1.082,1.810,1.181,2.048,1.419,0.562,1.027,0.952,�k,4.7,��
2017/01/17,13:50,1.085,1.810,1.178,2.049,1.420,0.560,1.026,0.952,�k�k��,5.5,��
2017/01/17,14:00,1.085,1.805,1.178,2.051,1.421,0.559,1.028,0.953,�k�k��,7.6,��
2017/01/17,14:10,1.086,1.803,1.180,2.050,1.418,0.561,1.026,0.951,�k��,8.1,��
2017/01/17,14:20,1.084,1.808,1.178,2.049,1.422,0.560,1.026,0.953,�k��,6.6,��
2017/01/17,14:30,1.085,1.810,1.180,2.053,1.422,0.562,1.029,0.954,�k�k��,5.3,��
2017/01/17,14:40,1.085,1.812,1.176,2.048,1.424,0.560,1.028,0.954,�k��,5.5,��
2017/01/17,14:50,1.086,1.811,1.180,2.055,1.425,0.559,1.028,0.955,�k�k��,5.3,��
2017/01/17,15:00,1.086,1.807,1.180,2.050,1.423,0.561,1.027,0.953,�k,5.3,��
2017/01/17,15:10,1.086,1.812,1.179,2.049,1.426,0.559,1.028,0.953,�k,6.4,��
2017/01/17,15:20,1.082,1.811,1.182,2.048,1.423,0.559,1.029,0.955,�k,5.7,��
2017/01/17,15:30,1.084,1.811,1.181,2.053,1.427,0.558,1.028,0.954,�k,5.4,��
2017/01/17,15:40,1.086,1.812,1.179,2.054,1.423,0.560,1.032,0.954,�k,5.7,��
2017/01/17,15:50,1.084,1.812,1.178,2.052,1.421,0.560,1.028,0.955,�k,5.4,��
2017/01/17,16:00,1.082,1.811,1.180,2.049,1.422,0.560,1.027,0.954,�k�k��,5.0,��
2017/01/17,16:10,1.084,1.810,1.179,2.050,1.424,0.559,1.028,0.955,�k,4.1,��
2017/01/17,16:20,1.083,1.811,1.178,2.055,1.420,0.558,1.027,0.955,�k,5.5,��
2017/01/17,16:30,1.084,1.809,1.181,2.051,1.424,0.561,1.032,0.955,�k,5.3,��
2017/01/17,16:40,1.084,1.812,1.178,2.050,1.422,0.560,1.029,0.953,�k,4.1,��
2017/01/17,16:50,1.082,1.811,1.178,2.049,1.423,0.560,1.029,0.952,�k�k��,3.6,��
2017/01/17,17:00,1.083,1.810,1.180,2.048,1.421,0.559,1.026,0.953,�k�k��,3.9,��
2017/01/17,17:10,1.083,1.810,1.176,2.049,1.423,0.560,1.029,0.953,�k�k��,3.7,��
2017/01/17,17:20,1.082,1.811,1.178,2.048,1.423,0.559,1.027,0.953,�k,3.7,��
2017/01/17,17:30,1.082,1.810,1.176,2.048,1.422,0.560,1.027,0.953,�k,3.5,��
2017/01/17,17:40,1.085,1.810,1.177,2.047,1.419,0.560,1.028,0.954,�k,3.1,��
2017/01/17,17:50,1.081,1.809,1.176,2.048,1.422,0.558,1.027,0.953,�k�k��,3.3,��
2017/01/17,18:00,1.081,1.809,1.177,2.045,1.419,0.559,1.025,0.954,�k�k��,3.2,��
2017/01/17,18:10,1.085,1.810,1.175,2.048,1.420,0.559,1.026,0.952,�k�k��,4.2,��
2017/01/17,18:20,1.082,1.807,1.173,2.046,1.424,0.559,1.026,0.952,�k�k��,4.3,��
2017/01/17,18:30,1.080,1.808,1.175,2.044,1.420,0.560,1.025,0.951,�k�k��,4.9,��
2017/01/17,18:40,1.080,1.809,1.175,2.048,1.422,0.559,1.024,0.951,�k�k��,5.4,��
2017/01/17,18:50,1.080,1.808,1.177,2.045,1.423,0.558,1.026,0.953,�k�k��,5.2,��
2017/01/17,19:00,1.080,1.807,1.177,2.047,1.423,0.560,1.024,0.954,�k�k��,5.8,��
2017/01/17,19:10,1.079,1.809,1.175,2.049,1.420,0.559,1.024,0.951,�k�k��,5.4,��
2017/01/17,19:20,1.078,1.809,1.173,2.047,1.421,0.559,1.026,0.952,�k�k��,4.0,��
2017/01/17,19:30,1.079,1.807,1.174,2.045,1.419,0.557,1.025,0.951,�k�k��,3.8,��
2017/01/17,19:40,1.078,1.806,1.171,2.044,1.420,0.559,1.026,0.953,�k��,3.8,��
2017/01/17,19:50,1.079,1.807,1.175,2.047,1.419,0.558,1.024,0.952,�k�k��,4.1,��
2017/01/17,20:00,1.079,1.809,1.175,2.046,1.419,0.556,1.026,0.954,�k�k��,4.8,��
2017/01/17,20:10,1.079,1.806,1.175,2.049,1.422,0.557,1.025,0.953,�k��,3.1,��
2017/01/17,20:20,1.080,1.806,1.175,2.044,1.423,0.557,1.025,0.949,�k��,2.5,��
2017/01/17,20:30,1.079,1.809,1.177,2.045,1.420,0.557,1.024,0.952,�k��,2.3,��
2017/01/17,20:40,1.078,1.809,1.173,2.045,1.420,0.557,1.026,0.953,�k�k��,2.6,��
2017/01/17,20:50,1.077,1.808,1.174,2.045,1.423,0.557,1.026,0.951,�k��,3.1,��
2017/01/17,21:00,1.079,1.810,1.172,2.046,1.418,0.558,1.024,0.951,�k��,1.7,��
2017/01/17,21:10,1.078,1.809,1.175,2.044,1.419,0.557,1.025,0.952,��,1.5,��
2017/01/17,21:20,1.078,1.807,1.174,2.045,1.420,0.558,1.025,0.951,��,2.0,��
2017/01/17,21:30,1.079,1.808,1.173,2.044,1.421,0.558,1.024,0.953,���k��,1.9,��
2017/01/17,21:40,1.077,1.806,1.174,2.045,1.420,0.558,1.025,0.952,���k��,2.3,��
2017/01/17,21:50,1.078,1.807,1.175,2.045,1.419,0.558,1.024,0.950,���k��,2.0,��
2017/01/17,22:00,1.078,1.808,1.174,2.045,1.420,0.559,1.024,0.951,���k��,2.9,��
2017/01/17,22:10,1.080,1.806,1.175,2.044,1.418,0.558,1.024,0.951,���k��,4.2,��
2017/01/17,22:20,1.076,1.805,1.174,2.045,1.418,0.558,1.025,0.952,��,4.3,��
2017/01/17,22:30,1.078,1.807,1.174,2.046,1.420,0.559,1.026,0.952,��,4.7,��
2017/01/17,22:40,1.078,1.804,1.175,2.047,1.416,0.556,1.024,0.951,���k��,4.2,��
2017/01/17,22:50,1.076,1.806,1.174,2.045,1.420,0.558,1.024,0.952,���k��,4.2,��
2017/01/17,23:00,1.077,1.807,1.172,2.046,1.419,0.557,1.023,0.951,���k��,4.1,��
2017/01/17,23:10,1.075,1.807,1.173,2.047,1.419,0.559,1.025,0.951,���k��,5.3,��
2017/01/17,23:20,1.076,1.806,1.172,2.044,1.419,0.557,1.024,0.951,�k��,4.7,��
2017/01/17,23:30,1.078,1.805,1.173,2.045,1.413,0.557,1.026,0.951,�k��,3.9,��
2017/01/17,23:40,1.078,1.808,1.173,2.043,1.417,0.558,1.024,0.950,���k��,3.7,��
2017/01/17,23:50,1.077,1.804,1.174,2.044,1.419,0.559,1.024,0.950,���k��,4.0,��
